| time (UTC) | temp F | wind direction | speed MPH | gust MPH | rain 1hr in | rain 24hr in | rain mn in | humidity % | barometer mb |
| 20260504181518 | 63 | 315 | 3.0 | 12.0 | 0.00 | 0.00 | 0.00 | 42 | 1006.8 |
| 20260504180022 | 61 | 9 | 3.0 | 11.0 | 0.00 | 0.00 | 0.00 | 44 | 1006.9 |
| 20260504174522 | 60 | 360 | 2.0 | 8.0 | 0.00 | 0.00 | 0.00 | 45 | 1007.0 |
| 20260504173010 | 60 | 255 | 2.0 | 7.0 | 0.00 | 0.00 | 0.00 | 44 | 1006.9 |
| 20260504171516 | 60 | 360 | 2.0 | 9.0 | 0.00 | 0.00 | 0.00 | 44 | 1007.0 |
| 20260504081513 | 41 | 360 | 1.0 | 3.0 | 0.00 | 0.00 | 0.00 | 73 | 1009.3 |
| 20260504050010 | 37 | 360 | 0.0 | 3.0 | 0.00 | 0.00 | 0.00 | 66 | 1009.2 |
| 20260504044514 | 37 | 80 | 1.0 | 3.0 | 0.00 | 0.00 | 0.00 | 66 | 1009.2 |
| 20260504043029 | 37 | 360 | 0.0 | 2.0 | 0.00 | 0.00 | 0.00 | 67 | 1009.4 |
| 20260504041524 | 37 | 360 | 0.0 | 2.0 | 0.00 | 0.00 | 0.00 | 69 | 1009.3 |
| 20260504040015 | 37 | 62 | 1.0 | 3.0 | 0.00 | 0.00 | 0.00 | 68 | 1009.3 |
| 20260504034511 | 37 | 360 | 0.0 | 3.0 | 0.00 | 0.00 | 0.00 | 69 | 1009.1 |
| 20260504033016 | 37 | 360 | 0.0 | 3.0 | 0.00 | 0.00 | 0.00 | 66 | 1009.2 |
| 20260504031521 | 38 | 360 | 1.0 | 3.0 | 0.00 | 0.00 | 0.00 | 66 | 1009.1 |
| 20260504030026 | 38 | 360 | 1.0 | 3.0 | 0.00 | 0.00 | 0.00 | 65 | 1009.1 |
| 20260504024510 | 38 | 360 | 0.0 | 3.0 | 0.00 | 0.00 | 0.00 | 67 | 1009.2 |
| 20260504023015 | 38 | 360 | 1.0 | 2.0 | 0.00 | 0.01 | 0.00 | 67 | 1009.3 |
| 20260504021520 | 38 | 360 | 0.0 | 3.0 | 0.00 | 0.01 | 0.00 | 66 | 1009.3 |
| 20260504020020 | 38 | 360 | 1.0 | 4.0 | 0.00 | 0.01 | 0.00 | 65 | 1009.2 |
| 20260504014534 | 39 | 360 | 2.0 | 3.0 | 0.00 | 0.02 | 0.00 | 65 | 1009.0 |
| 20260504013017 | 39 | 360 | 0.0 | 4.0 | 0.00 | 0.05 | 0.00 | 66 | 1008.9 |
| 20260504011514 | 41 | 34 | 2.0 | 4.0 | 0.00 | 0.06 | 0.00 | 62 | 1008.9 |
| 20260504010020 | 43 | 360 | 0.0 | 3.0 | 0.00 | 0.06 | 0.00 | 56 | 1008.9 |
| 20260504004524 | 43 | 360 | 0.0 | 3.0 | 0.00 | 0.07 | 0.00 | 55 | 1008.6 |
| 20260504003025 | 43 | 360 | 0.0 | 3.0 | 0.00 | 0.07 | 0.00 | 56 | 1008.4 |
| 20260504001512 | 44 | 360 | 0.0 | 3.0 | 0.00 | 0.07 | 0.00 | 56 | 1008.3 |
| 20260504000017 | 45 | 360 | 0.0 | 4.0 | 0.00 | 0.07 | 0.00 | 50 | 1008.1 |
| 20260503234523 | 46 | 360 | 1.0 | 5.0 | 0.00 | 0.07 | 0.00 | 49 | 1007.9 |
| 20260503233021 | 46 | 360 | 3.0 | 9.0 | 0.00 | 0.07 | 0.00 | 47 | 1007.8 |
| 20260503231525 | 46 | 360 | 2.0 | 12.0 | 0.00 | 0.07 | 0.00 | 47 | 1007.8 |
| 20260503230016 | 46 | 360 | 2.0 | 10.0 | 0.00 | 0.07 | 0.00 | 48 | 1007.6 |
| 20260503224517 | 47 | 144 | 3.0 | 9.0 | 0.00 | 0.07 | 0.00 | 47 | 1007.5 |
| 20260503223023 | 47 | 155 | 5.0 | 15.0 | 0.00 | 0.07 | 0.00 | 45 | 1007.5 |
| 20260503221524 | 47 | 174 | 2.0 | 11.0 | 0.00 | 0.07 | 0.00 | 46 | 1007.3 |
| 20260503220026 | 47 | 15 | 3.0 | 10.0 | 0.00 | 0.07 | 0.00 | 47 | 1007.3 |
| 20260503214538 | 47 | 187 | 3.0 | 13.0 | 0.00 | 0.07 | 0.00 | 45 | 1007.1 |
| 20260503213022 | 47 | 22 | 4.0 | 15.0 | 0.00 | 0.07 | 0.00 | 45 | 1007.3 |
| 20260503211523 | 47 | 360 | 5.0 | 12.0 | 0.00 | 0.07 | 0.00 | 45 | 1007.1 |
| 20260503210024 | 48 | 192 | 3.0 | 16.0 | 0.00 | 0.08 | 0.00 | 45 | 1007.0 |
| 20260503204530 | 48 | 237 | 4.0 | 17.0 | 0.00 | 0.11 | 0.00 | 44 | 1006.9 |
| 20260503203018 | 48 | 161 | 2.0 | 20.0 | 0.00 | 0.15 | 0.00 | 44 | 1006.9 |
| 20260503201503 | 48 | 19 | 3.0 | 14.0 | 0.00 | 0.26 | 0.00 | 44 | 1006.8 |
| 20260503200007 | 49 | 244 | 4.0 | 12.0 | 0.00 | 0.26 | 0.00 | 44 | 1006.8 |
| 20260503194513 | 48 | 323 | 4.0 | 12.0 | 0.00 | 0.26 | 0.00 | 46 | 1007.0 |
| 20260503193015 | 47 | 191 | 3.0 | 15.0 | 0.00 | 0.26 | 0.00 | 46 | 1007.0 |
| 20260503191522 | 48 | 36 | 2.0 | 10.0 | 0.00 | 0.26 | 0.00 | 46 | 1006.9 |
| 20260503190007 | 48 | 205 | 3.0 | 13.0 | 0.00 | 0.26 | 0.00 | 47 | 1006.8 |
| 20260503184510 | 48 | 248 | 5.0 | 15.0 | 0.00 | 0.26 | 0.00 | 47 | 1006.8 |
| 20260503183015 | 48 | 274 | 3.0 | 18.0 | 0.00 | 0.26 | 0.00 | 48 | 1006.9 |